Torna al catalogo

ORBCOMM FM 112

AttivoComunicazioniLEO
NORAD 41184·PAYLOAD·🇺🇸 United States

Lanciato Dec 22, 2015 da Cape Canaveral Space Force Station

Loading…

Prossimi Passaggi (prossime 24 ore)

TLE

AggiornatoSource: Space-Track

Epoca: Sep 14, 2026, 05:44 UTC

1 41184U 15081F   26257.23894963  .00000416  00000-0  12407-3 0  9997
2 41184  46.9980 209.1163 0003578 266.9300  93.1176 14.58956339571954

Traccia ORBCOMM FM 112 in tempo reale con AllMySat

Download on the App Store